| time (UTC) | temp F | wind direction | speed MPH | gust MPH | rain 1hr in | rain 24hr in | rain mn in | humidity % | barometer mb |
| 20260503054557 | 46 | 0 | 0.0 | 0.0 | 0.00 | 0.26 | 0.00 | 96 | 1014.7 |
| 20260503053056 | 47 | 0 | 0.0 | 1.0 | 0.00 | 0.26 | 0.00 | 96 | 1014.6 |
| 20260503051559 | 47 | 0 | 0.0 | 2.0 | 0.00 | 0.26 | 0.00 | 96 | 1014.6 |
| 20260503050055 | 47 | 0 | 0.0 | 0.0 | 0.00 | 0.26 | 0.00 | 96 | 1014.6 |
| 20260503044553 | 47 | 0 | 0.0 | 0.0 | 0.00 | 0.26 | 0.00 | 96 | 1014.8 |
| 20260503043054 | 47 | 0 | 0.0 | 0.0 | 0.00 | 0.26 | 0.00 | 95 | 1014.7 |
| 20260503041555 | 48 | 0 | 0.0 | 0.0 | 0.00 | 0.26 | 0.00 | 96 | 1014.6 |
| 20260503040056 | 48 | 0 | 0.0 | 0.0 | 0.00 | 0.26 | 0.00 | 95 | 1014.4 |
| 20260503034552 | 48 | 0 | 0.0 | 0.0 | 0.00 | 0.26 | 0.26 | 95 | 1014.3 |
| 20260503033100 | 48 | 0 | 0.0 | 0.0 | 0.00 | 0.26 | 0.26 | 95 | 1014.2 |
| 20260503031557 | 48 | 0 | 0.0 | 0.0 | 0.00 | 0.26 | 0.26 | 95 | 1013.9 |
| 20260503030058 | 49 | 0 | 0.0 | 0.0 | 0.00 | 0.26 | 0.26 | 95 | 1014.0 |
| 20260503024601 | 49 | 0 | 0.0 | 0.0 | 0.00 | 0.26 | 0.26 | 95 | 1013.9 |
| 20260503023054 | 49 | 0 | 0.0 | 0.0 | 0.00 | 0.26 | 0.26 | 94 | 1013.7 |
| 20260503021559 | 49 | 0 | 0.0 | 0.0 | 0.00 | 0.26 | 0.26 | 94 | 1013.6 |
| 20260503020058 | 50 | 0 | 0.0 | 0.0 | 0.00 | 0.26 | 0.26 | 94 | 1013.9 |
| 20260503014622 | 50 | 0 | 0.0 | 0.0 | 0.00 | 0.26 | 0.26 | 94 | 1013.8 |
| 20260503013054 | 50 | 0 | 0.0 | 0.0 | 0.00 | 0.26 | 0.26 | 93 | 1013.6 |
| 20260503011613 | 51 | 0 | 0.0 | 0.0 | 0.00 | 0.26 | 0.26 | 93 | 1013.4 |
| 20260503010057 | 51 | 0 | 0.0 | 0.0 | 0.00 | 0.26 | 0.26 | 92 | 1013.2 |
| 20260503004615 | 51 | 0 | 0.0 | 0.0 | 0.00 | 0.26 | 0.26 | 91 | 1012.8 |
| 20260503003058 | 52 | 0 | 0.0 | 0.0 | 0.00 | 0.26 | 0.26 | 91 | 1012.6 |
| 20260503001557 | 52 | 0 | 0.0 | 0.0 | 0.00 | 0.26 | 0.26 | 91 | 1012.5 |
| 20260503000055 | 53 | 0 | 0.0 | 0.0 | 0.00 | 0.26 | 0.26 | 90 | 1012.1 |
| 20260502234558 | 53 | 0 | 0.0 | 0.0 | 0.00 | 0.26 | 0.26 | 90 | 1012.0 |
| 20260502233059 | 53 | 0 | 0.0 | 0.0 | 0.00 | 0.26 | 0.26 | 89 | 1011.9 |
| 20260502231558 | 53 | 0 | 0.0 | 0.0 | 0.00 | 0.26 | 0.26 | 90 | 1011.8 |
| 20260502230055 | 53 | 0 | 0.0 | 0.0 | 0.00 | 0.26 | 0.26 | 88 | 1011.8 |
| 20260502224608 | 53 | 0 | 0.0 | 1.0 | 0.00 | 0.26 | 0.26 | 88 | 1011.7 |
| 20260502223055 | 53 | 0 | 1.0 | 3.0 | 0.00 | 0.26 | 0.26 | 87 | 1011.8 |
| 20260502221558 | 53 | 131 | 2.0 | 4.0 | 0.00 | 0.26 | 0.26 | 87 | 1011.8 |
| 20260502220056 | 53 | 128 | 2.0 | 4.0 | 0.00 | 0.26 | 0.26 | 88 | 1011.6 |
| 20260502214554 | 53 | 129 | 0.0 | 3.0 | 0.00 | 0.26 | 0.26 | 88 | 1011.7 |
| 20260502213109 | 53 | 129 | 1.0 | 4.0 | 0.00 | 0.26 | 0.26 | 88 | 1011.6 |
| 20260502211620 | 53 | 117 | 1.0 | 7.0 | 0.00 | 0.26 | 0.26 | 88 | 1011.6 |
| 20260502210100 | 53 | 122 | 1.0 | 4.0 | 0.00 | 0.26 | 0.26 | 88 | 1011.6 |
| 20260502204554 | 53 | 112 | 1.0 | 4.0 | 0.00 | 0.27 | 0.26 | 88 | 1011.6 |
| 20260502203059 | 53 | 117 | 1.0 | 7.0 | 0.00 | 0.27 | 0.26 | 89 | 1011.7 |
| 20260502201558 | 53 | 128 | 1.0 | 9.0 | 0.00 | 0.27 | 0.26 | 89 | 1011.7 |
| 20260502200052 | 54 | 107 | 2.0 | 4.0 | 0.00 | 0.27 | 0.26 | 89 | 1011.7 |
| 20260502194606 | 53 | 112 | 3.0 | 7.0 | 0.00 | 0.27 | 0.26 | 89 | 1011.9 |
| 20260502193056 | 53 | 71 | 2.0 | 5.0 | 0.00 | 0.27 | 0.26 | 92 | 1012.1 |
| 20260502191600 | 52 | 105 | 1.0 | 6.0 | 0.00 | 0.27 | 0.26 | 93 | 1012.1 |
| 20260502190057 | 52 | 89 | 2.0 | 4.0 | 0.00 | 0.27 | 0.26 | 94 | 1012.2 |
| 20260502184557 | 52 | 92 | 1.0 | 6.0 | 0.01 | 0.28 | 0.26 | 95 | 1012.1 |
| 20260502183106 | 52 | 65 | 1.0 | 5.0 | 0.01 | 0.28 | 0.26 | 95 | 1012.3 |
| 20260502181556 | 51 | 103 | 2.0 | 6.0 | 0.01 | 0.28 | 0.26 | 95 | 1012.4 |
| 20260502163100 | 51 | 346 | 2.0 | 5.0 | 0.05 | 0.25 | 0.23 | 95 | 1013.1 |
| 20260502161559 | 52 | 121 | 1.0 | 4.0 | 0.03 | 0.23 | 0.21 | 95 | 1013.6 |
| 20260502151603 | 52 | 341 | 2.0 | 8.0 | 0.03 | 0.19 | 0.17 | 95 | 1013.0 |
| 20260502123058 | 51 | 19 | 1.0 | 5.0 | 0.03 | 0.10 | 0.08 | 92 | 1011.9 |
| 20260502121556 | 51 | 5 | 1.0 | 10.0 | 0.04 | 0.10 | 0.08 | 91 | 1011.8 |
| 20260502114605 | 52 | 347 | 4.0 | 11.0 | 0.04 | 0.07 | 0.05 | 90 | 1011.7 |
| 20260502113056 | 52 | 336 | 3.0 | 13.0 | 0.05 | 0.07 | 0.05 | 89 | 1011.9 |
| 20260502111556 | 52 | 352 | 4.0 | 11.0 | 0.04 | 0.06 | 0.04 | 89 | 1012.1 |
| 20260502110053 | 53 | 346 | 3.0 | 16.0 | 0.02 | 0.04 | 0.02 | 89 | 1012.2 |
| 20260502104554 | 53 | 360 | 2.0 | 11.0 | 0.01 | 0.03 | 0.01 | 89 | 1012.1 |
| 20260502103057 | 54 | 344 | 3.0 | 10.0 | 0.00 | 0.02 | 0.00 | 89 | 1012.1 |
| 20260502101619 | 54 | 296 | 1.0 | 8.0 | 0.00 | 0.02 | 0.00 | 90 | 1012.1 |
| 20260502090108 | 53 | 325 | 1.0 | 4.0 | 0.00 | 0.02 | 0.00 | 92 | 1012.1 |
| 20260502080106 | 52 | 0 | 0.0 | 0.0 | 0.00 | 0.02 | 0.00 | 94 | 1011.6 |
| 20260502070107 | 52 | 0 | 0.0 | 0.0 | 0.00 | 0.02 | 0.00 | 93 | 1011.3 |
| 20260502064556 | 52 | 0 | 0.0 | 1.0 | 0.00 | 0.02 | 0.00 | 94 | 1011.4 |
| 20260502063058 | 52 | 0 | 0.0 | 2.0 | 0.00 | 0.02 | 0.00 | 94 | 1011.5 |